Temperature
14 14 15 15 15 15 15 15 15 15 15 15 14 14 14 14 14 14 15 15 15 15 15 14 14 14 14 14 13 13 13 13 13 13 12 12 12 12 12 12 11 11 11
14 14 14 14 14 14 15 15 15 14 14 14 14 14 14 14 14 14 14 14 14 14 14 14 14 14 14 14 13 13 13 13 13 12 12 12 12 12 11 11 11 11 11
14 14 14 14 14 14 14 14 14 14 14 14 14 14 14 14 14 14 14 14 14 14 14 14 14 14 14 13 13 13 13 13 12 12 12 12 11 11 11 11 11 11 11
14 14 14 14 14 14 14 14 14 14 14 14 14 14 14 14 14 14 14 14 14 14 14 14 14 14 13 13 13 13 13 12 12 12 12 11 11 11 11 11 11 10 10
14 14 14 14 14 14 14 14 14 14 14 14 14 14 14 14 14 14 14 14 14 14 14 14 13 13 13 13 13 13 12 12 12 12 11 11 11 11 11 10 10 10 10
14 14 14 14 14 14 14 14 14 14 14 14 14 14 14 14 14 14 14 14 14 14 14 14 13 13 13 13 13 12 12 12 12 11 11 11 11 10 10 10 10 10 10
14 14 14 14 14 14 14 14 14 13 13 13 13 13 13 13 14 14 14 14 14 13 13 13 13 13 13 12 12 12 12 12 11 11 11 11 10 10 10 10 10 10 10
14 14 14 14 14 14 14 13 13 13 13 13 13 13 13 13 13 13 14 14 13 13 13 13 13 12 12 12 12 12 12 11 11 11 11 10 10 10 10 10 9 9 9
14 13 13 14 13 13 13 13 13 13 13 13 13 13 13 13 13 13 13 13 13 13 13 13 13 12 12 12 12 12 11 11 11 10 10 10 10 10 9 9 9 9 9
13 13 13 13 13 13 13 13 13 13 13 13 13 13 13 13 13 12 12 13 12 12 12 12 12 12 11 11 11 11 11 11 10 10 10 10 9 9 9 9 9 8 8
12 12 12 12 13 13 13 13 13 13 13 13 13 13 13 13 12 12 12 12 12 12 12 11 11 11 11 11 11 11 10 10 10 10 9 9 9 9 8 8 8 8 8
12 12 12 12 12 12 12 12 12 12 12 12 12 12 12 12 12 12 12 11 11 11 11 11 11 11 11 10 10 10 10 10 9 9 9 9 8 8 8 8 8 8 7
12 12 12 12 12 12 12 12 12 12 12 12 12 12 12 12 12 12 12 11 11 10 10 10 10 10 10 10 10 10 9 9 9 9 8 8 8 8 8 7 7 7 7
11 11 11 11 11 11 11 11 11 11 11 11 11 11 11 11 11 11 11 11 10 10 10 10 10 10 10 10 9 9 9 9 8 8 8 8 7 7 7 7 7 7 7
11 11 11 11 11 11 11 10 11 11 11 11 11 11 11 11 11 11 11 10 10 9 9 9 9 9 9 9 9 8 8 8 8 8 7 7 7 7 7 6 6 6 6
10 10 10 10 10 10 10 10 10 10 10 10 10 10 10 10 10 10 10 10 10 9 9 8 9 9 8 8 8 8 8 7 7 7 7 6 6 6 6 6 6 6 6
9 9 9 10 9 9 9 9 9 9 9 10 9 10 10 10 10 10 10 9 9 9 8 8 8 8 8 8 7 7 7 7 6 6 6 6 6 6 6 5 5 5 5
9 9 9 9 9 9 9 9 9 9 9 9 9 9 9 9 9 9 9 9 8 8 8 8 7 7 7 7 7 6 6 6 6 6 6 6 5 5 5 5 5 5 4
8 8 8 8 8 8 8 8 8 8 8 8 8 8 8 8 8 8 8 8 8 8 7 7 7 7 6 6 6 6 6 5 5 5 5 5 5 5 4 4 4 4 4
8 8 8 8 8 8 8 8 8 8 8 8 8 8 8 8 8 8 7 7 7 7 7 7 6 6 6 5 5 5 5 5 5 4 4 4 4 4 4 4 4 3 3
7 7 7 7 7 7 7 7 7 7 7 7 7 7 7 7 7 7 7 7 7 7 6 6 6 5 5 5 5 4 4 4 4 4 4 4 4 3 3 3 3 3 3
7 7 7 7 7 7 7 7 6 7 7 7 7 7 6 6 6 6 6 6 6 6 6 5 5 5 5 4 4 4 4 3 3 3 3 3 3 3 3 3 3 3 2
6 6 6 6 6 6 6 6 6 6 6 6 6 6 6 6 6 6 5 5 5 5 5 5 5 4 4 4 4 3 3 3 3 3 2 3 2 2 2 2 2 2 2
5 5 5 5 5 6 5 6 6 6 6 6 6 5 5 5 5 5 5 5 4 4 4 4 4 4 3 3 3 3 2 2 2 2 2 2 2 2 2 2 2 2 1
4 4 5 5 5 5 5 5 5 5 5 5 5 5 5 5 5 4 4 4 4 4 3 3 3 3 3 2 2 2 2 2 2 2 1 1 1 1 1 1 1 1 1
4 4 4 4 4 4 4 4 4 4 4 4 4 4 4 4 4 4 3 3 3 3 3 3 2 2 2 2 2 1 1 1 1 1 1 0 0 0 0 1 1 0 0
Wind_Speed
8 8 8 11 12 12 11 9 8 7 7 8 8 6 4 4 6 9 10 11 10 8 7 7 6 6 5 5 5 4 5 5 5 5 5 5 5 6 6 6 6 6 6
8 8 7 7 9 11 11 9 7 5 4 4 4 4 5 5 5 7 10 11 11 10 9 8 7 7 7 6 6 6 6 7 7 7 7 7 7 8 8 8 8 8 8
10 8 7 6 7 10 11 8 6 4 3 3 3 3 4 4 5 6 8 10 11 11 10 9 9 8 7 6 6 6 6 6 7 8 8 8 8 8 8 9 9 9 9
12 8 7 6 8 9 7 5 5 4 4 3 3 3 2 3 3 4 6 8 10 9 10 10 9 8 7 6 6 6 7 7 7 8 8 9 9 9 9 9 10 10 10
12 9 6 6 8 6 5 6 5 5 5 4 4 3 2 3 3 4 4 6 8 9 9 9 9 8 7 6 7 7 7 7 7 7 7 7 8 9 9 10 9 9 10
11 9 6 7 7 5 5 5 5 5 4 4 4 3 3 3 3 3 4 4 5 8 8 7 8 8 8 7 7 7 8 8 7 7 6 6 7 8 9 9 9 9 9
10 8 6 6 6 6 6 6 5 6 5 4 3 2 3 4 5 4 4 3 4 6 6 6 7 7 6 7 7 7 7 7 7 7 7 7 8 8 8 9 10 10 10
9 8 7 7 7 6 6 6 5 4 4 5 4 3 2 2 4 5 4 4 3 4 4 4 4 4 4 4 3 4 4 4 5 6 7 7 7 8 8 9 9 9 9
8 7 7 6 6 6 6 6 7 6 5 5 5 4 3 4 2 2 4 4 4 3 3 4 4 3 3 3 3 1 2 3 5 6 7 7 7 7 8 7 7 8 8
7 7 7 7 7 6 6 6 6 5 6 6 5 4 4 3 3 2 2 3 4 4 4 3 4 4 4 3 2 1 0 2 4 5 6 6 6 6 6 6 6 6 7
6 7 7 6 6 6 7 7 7 6 6 6 5 4 4 3 3 3 3 3 2 3 3 3 4 4 4 4 3 1 0 2 3 4 4 5 4 5 5 6 6 6 7
4 6 6 6 6 5 6 6 6 7 6 6 5 4 4 4 4 4 4 4 3 3 2 2 3 4 4 4 3 2 0 0 2 3 3 3 3 4 5 6 6 7 7
4 6 5 6 6 5 6 5 6 6 7 7 6 5 4 4 3 3 4 4 3 2 2 2 2 4 4 5 4 2 1 1 1 2 2 2 3 4 4 5 6 7 7
4 5 5 5 5 5 5 5 5 5 5 6 6 6 4 4 3 3 4 4 3 3 3 3 1 3 5 5 4 3 2 2 1 1 2 2 3 3 3 4 4 5 6
2 4 5 5 5 5 5 5 4 5 5 5 5 5 4 3 3 3 3 3 4 5 4 3 2 2 4 5 4 3 2 2 1 0 1 1 2 2 3 3 4 4 5
2 3 4 4 5 5 5 5 4 4 5 5 4 5 5 3 3 3 4 3 3 4 4 2 2 2 4 4 4 3 2 2 1 1 0 0 1 1 2 2 3 4 5
3 3 3 4 4 4 5 5 5 5 6 6 5 6 6 5 4 4 3 3 3 3 4 1 1 2 2 3 2 2 2 2 1 2 2 1 0 1 1 2 3 4 4
2 3 3 3 4 4 5 6 6 6 7 7 7 6 6 4 5 4 4 4 4 4 4 3 2 2 2 3 3 2 1 2 2 2 2 2 1 1 1 1 2 2 3
1 2 3 4 4 4 4 5 5 6 6 6 6 7 6 6 5 4 4 5 4 3 3 3 3 1 1 2 2 1 1 1 1 2 2 2 2 2 2 1 1 2 2
1 2 2 3 3 3 4 4 4 4 4 4 4 5 6 6 6 6 5 5 4 4 3 3 3 2 2 2 2 1 1 1 2 1 2 2 2 2 2 2 1 1 2
2 2 1 2 2 3 3 3 4 4 4 4 4 4 4 5 6 5 5 4 4 4 4 4 3 2 2 2 3 2 2 1 1 1 0 2 2 2 2 2 1 1 2
2 2 2 2 2 3 4 6 5 4 5 5 5 4 4 5 6 6 6 6 6 6 6 5 4 4 4 4 3 3 2 1 2 1 0 2 2 2 3 3 2 2 2
3 2 2 2 2 3 4 6 6 5 4 5 5 5 4 5 6 5 6 5 4 5 6 5 5 5 4 4 5 4 3 3 2 2 1 2 1 1 2 3 2 2 2
3 2 2 2 2 2 3 4 4 4 4 4 5 6 6 6 6 7 5 4 3 2 3 3 4 4 4 4 5 5 4 2 0 0 2 1 1 1 1 2 3 2 3
3 3 2 2 2 2 3 3 3 2 3 4 4 5 6 6 9 10 7 6 4 2 3 6 6 6 6 6 6 4 3 2 1 1 1 1 1 1 1 1 2 2 3
3 3 3 2 2 2 3 3 4 2 3 2 3 4 6 7 9 10 7 7 6 5 5 5 4 4 4 4 5 4 4 3 2 1 1 1 0 1 2 2 1 1 2
Wind_Direction
159 161 167 168 172 173 168 180 197 193 184 186 199 184 161 161 143 147 160 169 176 184 196 207 214 221 224 230 237 248 253 257 263 268 272 277 281 285 288 294 301 307 312
163 161 164 166 172 171 173 183 194 179 180 181 182 169 168 168 164 160 167 179 187 194 204 214 221 228 234 240 245 252 257 259 260 263 266 271 275 278 280 282 284 287 291
163 161 161 164 169 169 172 182 185 170 176 170 178 184 177 179 176 178 179 181 190 202 209 215 222 229 237 242 250 254 257 259 259 259 260 265 269 273 276 280 281 281 282
163 159 160 167 170 169 169 171 171 169 173 170 184 193 181 175 187 194 188 184 186 192 203 212 218 224 230 240 249 255 260 263 260 258 259 262 266 271 277 282 282 281 280
162 160 162 168 169 165 167 175 173 171 174 181 188 190 191 192 199 195 197 198 189 181 182 199 210 218 225 239 252 260 265 268 263 262 266 267 269 273 278 283 288 288 287
164 162 161 171 169 168 174 173 172 176 178 177 181 191 204 210 201 198 201 196 191 186 184 186 195 210 221 231 248 259 265 270 266 267 274 279 281 281 282 285 288 292 293
167 164 166 173 173 176 179 176 176 181 186 170 156 210 243 225 211 206 197 187 188 184 180 184 185 193 201 220 239 257 269 274 271 271 276 283 287 288 290 290 290 292 294
171 172 171 176 176 178 179 183 176 180 189 173 167 173 221 247 233 211 188 188 190 164 164 171 171 181 182 176 209 241 261 276 283 284 282 282 286 291 293 293 293 298 302
172 171 171 171 176 179 186 188 183 184 191 194 188 178 183 210 210 216 200 193 182 171 166 162 165 169 162 151 157 204 253 272 283 288 288 290 292 294 295 300 304 311 318
170 174 172 172 179 182 187 194 192 193 188 201 207 212 202 171 172 203 230 203 186 184 181 165 160 164 162 145 132 110 267 279 287 290 292 296 298 301 306 312 319 331 335
169 174 176 176 185 190 193 195 194 197 200 204 204 201 214 220 206 191 215 211 208 201 183 171 159 157 156 154 137 119 263 284 296 301 303 307 316 323 330 338 343 346 342
170 174 176 181 189 193 198 201 199 199 206 210 213 204 195 197 199 196 212 208 209 211 191 175 160 153 155 151 142 134 144 314 324 319 319 332 355 357 352 350 350 346 343
181 186 186 189 194 195 195 197 199 204 205 207 211 213 211 215 205 193 201 212 215 212 192 193 169 150 148 141 134 132 141 108 21 354 358 10 9 2 356 352 354 353 358
185 190 191 190 191 192 197 197 203 208 207 207 207 202 211 220 210 204 203 201 218 223 210 208 175 153 144 138 136 129 132 126 77 33 17 10 9 12 10 6 3 2 6
185 184 190 191 187 189 197 195 203 205 203 208 206 202 207 214 210 207 209 206 206 223 226 200 177 160 137 128 134 133 131 141 112 109 29 8 14 19 18 13 1 4 14
189 189 188 185 186 190 194 194 200 202 201 212 209 201 207 206 201 197 199 203 205 204 221 194 174 162 139 135 143 142 152 171 176 203 222 14 2 359 1 3 7 10 9
202 199 197 195 194 195 199 200 208 205 208 216 212 203 209 201 195 197 193 191 194 190 217 215 125 130 140 153 144 144 159 173 202 219 223 243 281 312 335 3 10 11 9
215 210 208 204 209 210 207 208 215 213 212 216 214 209 211 200 199 198 190 192 197 188 192 205 188 168 171 168 157 161 191 196 205 219 222 227 234 256 270 349 3 3 3
254 233 218 212 214 218 217 214 219 220 215 214 208 203 202 191 200 203 197 196 192 185 180 186 187 168 155 152 149 168 186 203 246 225 220 223 230 236 243 269 322 336 348
309 270 246 229 220 221 222 219 217 218 214 213 207 200 197 193 197 193 197 197 185 179 175 174 175 170 163 156 150 173 217 234 251 224 232 242 242 244 235 243 252 305 329
316 291 271 256 233 225 220 211 210 211 207 205 201 196 190 180 183 186 192 190 181 181 178 179 183 176 179 168 190 180 196 220 242 168 270 266 240 244 245 232 228 296 312
308 301 283 262 253 245 215 218 215 211 206 202 199 188 178 176 177 177 181 186 188 190 188 186 191 194 200 192 174 163 154 146 256 241 131 266 211 220 234 217 234 268 282
316 303 290 270 262 251 228 222 219 212 203 203 195 187 189 184 178 173 173 172 190 200 194 183 187 196 186 181 166 165 172 183 212 202 126 256 233 233 232 214 229 258 264
316 306 304 294 279 268 242 220 209 202 198 202 195 187 184 183 183 171 165 163 166 174 179 168 170 173 159 151 158 165 164 145 108 271 138 217 262 258 258 244 230 240 251
319 313 303 285 275 272 252 227 211 196 196 198 189 181 179 180 183 174 164 162 165 166 140 136 131 128 128 134 138 127 132 136 192 231 144 162 264 313 304 277 234 239 255
309 315 311 297 276 266 248 225 206 185 186 184 175 176 184 184 181 177 172 169 177 176 149 133 128 123 124 138 145 146 158 162 168 207 186 130 109 40 321 313 298 277 277
Height
1521 1524 1528 1531 1535 1538 1541 1544 1547 1549 1552 1554 1556 1557 1559 1560 1561 1561 1562 1562 1563 1563 1563 1563 1563 1563 1563 1563 1562 1562 1562 1561 1560 1560 1559 1558 1557 1557 1556 1555 1554 1553 1552
1519 1522 1526 1529 1533 1536 1539 1542 1545 1548 1550 1552 1554 1556 1557 1558 1559 1560 1560 1561 1561 1561 1561 1561 1561 1561 1561 1561 1561 1560 1560 1559 1559 1558 1557 1557 1556 1555 1554 1553 1552 1551 1550
1516 1520 1524 1527 1531 1534 1538 1541 1544 1546 1548 1551 1552 1554 1555 1556 1557 1558 1558 1559 1559 1559 1559 1559 1559 1559 1559 1559 1559 1558 1558 1557 1557 1556 1555 1554 1553 1553 1552 1551 1550 1549 1548
1513 1517 1521 1525 1528 1532 1535 1538 1541 1543 1546 1548 1550 1551 1553 1554 1554 1555 1556 1556 1557 1557 1557 1557 1557 1557 1557 1556 1556 1556 1555 1555 1554 1553 1553 1552 1551 1550 1549 1548 1547 1546 1545
1510 1514 1518 1522 1525 1529 1532 1535 1538 1540 1542 1545 1547 1549 1550 1550 1551 1552 1553 1554 1554 1554 1554 1554 1554 1554 1554 1553 1553 1553 1552 1552 1551 1550 1550 1549 1548 1547 1546 1545 1544 1543 1542
1506 1511 1514 1518 1522 1525 1528 1531 1534 1537 1539 1542 1544 1545 1546 1547 1548 1549 1550 1550 1551 1551 1551 1551 1551 1551 1550 1550 1550 1549 1549 1548 1548 1547 1546 1545 1544 1543 1543 1542 1541 1539 1538
1503 1507 1511 1514 1518 1521 1525 1528 1531 1533 1536 1538 1540 1542 1543 1544 1544 1545 1546 1546 1547 1547 1547 1547 1547 1547 1547 1547 1546 1546 1545 1545 1544 1543 1542 1541 1541 1540 1539 1538 1537 1536 1534
1499 1504 1507 1511 1514 1517 1521 1524 1527 1529 1531 1534 1536 1538 1539 1541 1540 1541 1542 1542 1543 1543 1543 1544 1544 1543 1543 1543 1542 1542 1542 1541 1540 1539 1538 1537 1536 1536 1535 1534 1533 1532 1531
1496 1500 1503 1507 1510 1513 1516 1519 1522 1525 1526 1529 1531 1533 1535 1535 1536 1537 1537 1538 1539 1539 1539 1539 1540 1540 1539 1539 1538 1538 1537 1537 1536 1535 1534 1533 1532 1531 1531 1530 1528 1528 1526
1492 1496 1499 1503 1506 1509 1512 1515 1518 1520 1522 1524 1526 1528 1530 1530 1532 1532 1533 1533 1534 1534 1535 1535 1535 1535 1535 1535 1534 1534 1533 1532 1531 1531 1530 1529 1528 1527 1526 1525 1524 1523 1522
1488 1491 1495 1498 1501 1504 1507 1510 1512 1515 1517 1519 1520 1522 1524 1525 1526 1527 1528 1529 1529 1530 1530 1530 1531 1531 1531 1530 1530 1529 1529 1528 1527 1526 1525 1524 1524 1523 1522 1521 1520 1519 1518
1483 1487 1490 1494 1496 1499 1502 1504 1507 1509 1511 1513 1515 1516 1518 1519 1520 1521 1522 1523 1524 1525 1525 1526 1525 1526 1526 1525 1525 1525 1524 1523 1523 1522 1521 1520 1519 1518 1518 1517 1516 1515 1514
1479 1482 1485 1488 1491 1494 1496 1499 1501 1503 1505 1507 1509 1510 1512 1513 1514 1516 1517 1518 1519 1519 1520 1520 1520 1520 1520 1520 1520 1519 1519 1519 1518 1517 1516 1515 1515 1514 1513 1513 1512 1511 1510
1475 1477 1480 1483 1485 1488 1491 1493 1495 1497 1499 1501 1502 1504 1506 1507 1508 1510 1511 1512 1513 1513 1513 1514 1515 1515 1515 1515 1514 1514 1514 1514 1513 1513 1512 1511 1510 1510 1509 1508 1507 1507 1506
1471 1473 1475 1477 1480 1483 1485 1487 1489 1491 1493 1495 1496 1498 1499 1501 1502 1503 1505 1506 1507 1506 1507 1508 1508 1509 1510 1509 1509 1509 1509 1509 1509 1508 1507 1506 1506 1505 1504 1504 1504 1503 1502
1467 1469 1470 1472 1474 1477 1479 1481 1483 1485 1487 1489 1490 1492 1493 1494 1496 1497 1498 1500 1501 1501 1501 1501 1502 1503 1504 1504 1504 1504 1504 1504 1504 1503 1502 1502 1501 1501 1500 1500 1500 1499 1498
1463 1465 1466 1467 1469 1471 1473 1475 1477 1479 1481 1482 1484 1485 1486 1488 1489 1491 1492 1492 1494 1495 1495 1496 1497 1498 1499 1499 1498 1498 1499 1498 1498 1498 1498 1497 1497 1496 1496 1496 1495 1495 1494
1459 1460 1462 1463 1465 1466 1468 1470 1471 1473 1474 1476 1477 1478 1480 1481 1483 1484 1485 1486 1487 1488 1490 1490 1491 1492 1493 1493 1493 1493 1494 1493 1494 1494 1493 1493 1492 1492 1492 1492 1491 1491 1490
1455 1456 1457 1458 1459 1461 1463 1464 1466 1467 1468 1470 1471 1472 1473 1475 1476 1477 1478 1480 1481 1482 1483 1485 1485 1486 1487 1487 1488 1488 1489 1489 1489 1489 1489 1489 1488 1488 1488 1488 1487 1487 1487
1452 1452 1453 1454 1454 1456 1457 1459 1460 1461 1462 1463 1465 1466 1467 1468 1470 1471 1473 1474 1475 1477 1478 1478 1480 1481 1481 1482 1483 1483 1484 1485 1485 1485 1485 1485 1484 1484 1484 1484 1484 1484 1484
1449 1449 1449 1449 1450 1451 1452 1453 1455 1455 1456 1457 1459 1460 1461 1462 1464 1466 1468 1469 1470 1470 1472 1473 1474 1475 1476 1477 1478 1478 1479 1480 1480 1480 1481 1481 1480 1480 1480 1480 1480 1480 1480
1446 1446 1445 1445 1445 1446 1447 1448 1449 1450 1451 1452 1453 1454 1455 1457 1458 1460 1462 1463 1465 1465 1466 1467 1468 1470 1471 1472 1473 1474 1475 1475 1476 1476 1477 1477 1477 1477 1477 1477 1477 1477 1477
1442 1442 1442 1441 1441 1442 1443 1443 1444 1445 1445 1446 1447 1448 1450 1451 1453 1454 1456 1457 1459 1460 1461 1463 1464 1465 1466 1467 1468 1469 1470 1471 1471 1472 1472 1473 1473 1473 1473 1473 1473 1473 1473
1439 1438 1438 1437 1437 1437 1438 1438 1439 1439 1440 1441 1442 1444 1445 1446 1448 1449 1450 1452 1453 1455 1456 1457 1459 1460 1462 1463 1464 1466 1466 1467 1468 1469 1469 1469 1469 1469 1470 1470 1470 1470 1470
1436 1435 1434 1434 1433 1433 1433 1434 1434 1434 1435 1436 1437 1439 1440 1441 1442 1444 1445 1447 1448 1450 1452 1453 1454 1456 1457 1458 1460 1461 1462 1463 1463 1464 1465 1465 1465 1466 1466 1466 1466 1466 1466
1433 1432 1431 1430 1429 1429 1429 1429 1430 1430 1430 1431 1432 1434 1435 1437 1438 1439 1441 1442 1444 1445 1447 1448 1451 1452 1453 1454 1456 1457 1458 1459 1460 1461 1461 1462 1462 1463 1463 1463 1463 1463 1463